User: anonymous   Login
Location: Arbon
(43.0005°N, 0.7472°E)
Time: 13:42:22
(UTC+00:00)
Language:

Cosmos 2142 Rocket - Orbit

View from above orbital plane
View from above orbital plane
View from above satellite
View from above satellite

Ground track
Ground track

The orbit data is extracted from the following two-line orbital elements,

1 21231U 91029B   20294.72708466 +.00000046 +00000-0 +31698-4 0  9998
2 21231 082.9480 283.7590 0036516 058.1705 114.5073 13.75820495481742
Epoch (UTC): 20 October 2020 17:27:00
Eccentricity: 0.0036516
inclination: 82.9480°
perigee height: 952 km
apogee height: 1005 km
right ascension of ascending node: 283.7590°
argument of perigee: 58.1705°
revolutions per day: 13.75820495
mean anomaly at epoch: 114.5073°
orbit number at epoch: 48174

The dashed part of the orbit path shows where the satellite is in the earth's shadow,  

DLR